Regional Weather Roundup
Issued by NWS

Home | Current Version | Previous Version | Text Only | Print | Product List | Glossary Off
Versions: 1 2 3 4 5 6 7 8 9 10 11 12 13 14 15 16 17 18 19 20 21 22 23 24 25 26 27 28 29 30 31 32 33 34 35 36 37 38 39 40 41 42 43 44 45 46 47 48 49 50

000
ASUS45 KTFX 240619
RWRMT
MONTANA HOURLY WEATHER ROUNDUP
NATIONAL WEATHER SERVICE GREAT FALLS MT
1219 AM MDT THU APR 24 2014

NOTE: "FAIR" INDICATES FEW OR NO CLOUDS BELOW 12000 FEET WITH NO
SIGNIFICANT WEATHER AND/OR OBSTRUCTIONS TO VISIBILITY.

* THESE STATIONS ARE NOT UNDER NWS QUALITY CONTROL. THEY DO NOT
   REPORT WEATHER SUCH AS PRECIPITATION OR FOG.

MTZ001>007-043-240700-
WEST OF THE DIVIDE
CITY           SKY/WX    TMP DP  RH WIND       PRES   REMARKS
KALISPELL      MOCLDY    37  30  76 SW8       29.85S WCI  31
MISSOULA       CLOUDY    37  34  89 CALM      29.91S
BUTTE          CLOUDY    37  21  52 SW10      29.86S WCI  30
MULLAN PASS    LGT SNOW  28  27  96 SW6       29.81F VSB 1    WCI  21
* ESSEX        N/A       36  24  62 S1         N/A
* LINCOLN      N/A       32  31  96 S4G9       N/A
* LOOKOUT PASS N/A       32  31  96 N/A        N/A
* POLSON       N/A       33  29  85 SW1        N/A
* SEELEY LAKE  N/A       33  32  96 N/A        N/A
* THOMP F APT  PTCLDY    30  16  56 N3G9       N/A
$$

MTZ008-052>055-240700-
SOUTHWEST MONTANA
CITY           SKY/WX    TMP DP  RH WIND       PRES   REMARKS
BOZEMAN        CLOUDY    39  28  65 CALM      29.85F
DILLON         MOCLDY    37  21  52 S14       29.89S WCI  28
W YELLOWSTONE  N/A       30  23  75 S4G12      N/A
* THREE FORKS  PTCLDY    39  30  70 N/A        N/A
* BOULDER HILL N/A       35  20  54 S10G15     N/A   WCI  27
* MONIDA PASS  N/A       30  15  54 SW4G11     N/A
* RAYNOLDS PAS N/A       26  15  63 SW6G11     N/A   WCI  19
* WHITEHALL    N/A       40  25  55 W9G14      N/A   WCI  34
* WISE RIVER   N/A       35  24  64 NW10G15    N/A   WCI  27
$$

MTZ009>010-012-014-046-048-049-054-240700-
EAST SLOPES AND CENTRAL MONTANA
CITY           SKY/WX    TMP DP  RH WIND       PRES   REMARKS
CUT BANK       CLEAR     36  21  54 W21       29.70R WCI  25
GREAT FALLS    PTCLDY    36  28  73 SW12      29.76R WCI  28
HELENA         LGT RAIN  37  34  89 CALM      29.85S
MALMSTROM AFB  PTCLDY    39  27  62 SW18      29.73S WCI  30
* CONRAD       CLEAR     30  25  82 N/A        N/A
* EAST GLACIER N/A       35  16  46 NW37G47    N/A   WCI  20
* MONARCH      N/A       34  14  44 SW19G27    N/A   WCI  23
* PENDROY      N/A       34  21  59 SW17       N/A   WCI  23
* SAINT MARY   N/A       35  23  62 SW11G23    N/A   WCI  27
* SWEET GRASS  N/A       37  23  57 E23G30     N/A   WCI  26
* WHITE SULPH  N/A       35  25  67 SW4        N/A
$$

MTZ011-013-016-021-035-040-045-047-050-051-240700-
NORTH CENTRAL MONTANA
CITY           SKY/WX    TMP DP  RH WIND       PRES   REMARKS
HAVRE          CLEAR     39  27  62 SW17      29.70R WCI  30
LEWISTOWN      PTCLDY    36  25  64 SW17      29.76S WCI  26
* CHINOOK      CLEAR     43  25  49 SW16G24   29.68S
* FORT BENTON  PTCLDY    39  28  65 SW8       29.76S WCI  33
* MALTA APT    PTCLDY    41  25  53 W8        29.67R
* CHESTER      N/A       36  26  67 SW7        N/A   WCI  30
* DENTON       N/A       34  21  59 SW8        N/A   WCI  27
* JUDITH GAP   N/A       35  24  64 SW20G28    N/A   WCI  24
* LOMA         N/A       42  28  58 SW12G20    N/A
$$

MTZ017>020-022>027-061-062-240700-
NORTHEAST MONTANA
CITY           SKY/WX    TMP DP  RH WIND       PRES   REMARKS
GLASGOW        CLEAR     39  27  62 NW7       29.68R WCI  34
GLENDIVE       CLEAR     39  19  45 W13       29.72S WCI  31
JORDAN         CLEAR     37  23  57 W6        29.73R WCI  32
SIDNEY         CLEAR     46  21  37 W13       29.67S
WOLF POINT     CLEAR     45  25  45 W10       29.68R
* BEAVER HILL  N/A       43  21  42 SW15       N/A
* CIRCLE       N/A       42  24  49 N/A        N/A
* LINDSAY DVD  N/A       42  20  41 SW14G26    N/A
* NAVAJO       N/A       38  33  82 W11        N/A   WCI  31
* SACO         N/A       44  23  43 SW12G19    N/A
$$

MTZ028>042-056>058-240700-
SOUTHCENTRAL AND SOUTHEAST MONTANA
CITY           SKY/WX    TMP DP  RH WIND       PRES   REMARKS
BAKER          CLEAR     39  23  53 SW13      29.75S WCI  31
BILLINGS       MOCLDY    43  25  49 SW9       29.81S
LIVINGSTON     CLOUDY    43  21  42 W16G28    29.81F
MILES CITY     PTCLDY    41  21  45 W10       29.76S
* LAUREL APT   PTCLDY    39  18  43 SW5        N/A   WCI  35
* ROUNDUP APT  CLOUDY    41  25  53 SW11G17    N/A
* HYSHAM       N/A       41  19  41 W1G6       N/A
* LAME DEER    N/A       40  19  43 SW5        N/A   WCI  36
* REED POINT   N/A       39  26  60 SW2        N/A
* ROSCOE HILL  N/A       40  11  30 SW7G16     N/A   WCI  35
$$

REGIONAL REPORTS...DAKOTAS
CITY           SKY/WX    TMP DP  RH WIND       PRES   REMARKS
WILLISTON      PTCLDY    39  30  70 SW8       29.64R WCI  33
DICKINSON      MOCLDY    36  25  64 SW9       29.70R WCI  29
CROSBY         FAIR      39  39 100 S5        29.62S WCI  35
TIOGA          CLEAR     37  37 100 S3        29.66S
WATFORD CITY   CLEAR     36  27  70 SW8       29.66R WCI  30
BISMARCK       CLOUDY    37 N/A N/A S3        29.74R
GRAND FORKS    LGT RAIN  39  37  93 SE17      29.83S VSB 3    WCI  30
FARGO          LGT RAIN  43  37  79 SE13G24   29.80S
BUFFALO SD     PTCLDY    37  25  62 W10       29.73R WCI  30
RAPID CITY     CLOUDY    41  28  60 NW7       29.82R
$$

REGIONAL REPORTS...WYOMING/IDAHO/WASHINGTON
CITY           SKY/WX    TMP DP  RH WIND       PRES   REMARKS
GILLETTE       PTCLDY    30  21  69 W7        29.85S WCI  23
SHERIDAN       CLEAR     39  18  43 W5        29.85R WCI  35
CODY           PTCLDY    37  21  52 SW14      29.87F WCI  28
YELLOWSTONE LA PTCLDY    25  19  78 VRB3      29.99R
SALMON         CLOUDY    43  23  45 SW9       29.91S
MULLAN PASS    LGT SNOW  28  27  96 SW6       29.81S VSB 1    WCI  21
SAND POINT     MOCLDY    37  37 100 CALM      29.86F
SPOKANE        CLOUDY    43  36  76 SE8       29.82F
$$

REGIONAL REPORTS...ALBERTA
CITY           SKY/WX    TMP DP  RH WIND       PRES   REMARKS
CALGARY        FAIR      36  32  85 NW3       29.65R
LETHBRIDGE     CLEAR     39  23  53 W16G24    29.66R WCI  30
MEDICINE HAT   LGT RAIN  41  39  93 W14G25    29.65R
EDMONTON       LGT SNOW  36  32  85 NW16G26   29.61R WCI  26
WATERTON GATE  N/A       37  18  46 SW14G23    N/A   WCI  28
CARDSTON       N/A       39  19  45 W13G21     N/A   WCI  31
MILK RIVER     N/A       36  21  54 W16        N/A   WCI  26
$$

REGIONAL REPORTS...SASKATCHEWAN
CITY           SKY/WX    TMP DP  RH WIND       PRES   REMARKS
SWIFT CURRENT  CLOUDY    39  37  93 W7        29.57R WCI  34
REGINA         LGT RAIN  45  43  93 W5        29.55S
VAL MARIE      N/A       41  27  58 W18G24     N/A
ASSINIBOIA     N/A       41  39  93 SW10       N/A
CORONACH       N/A       39  36  89 SW6        N/A   WCI  35

$$




USA.gov is the U.S. government's official web portal to all federal, state and local government web resources and services.